This demonstration page uses our WeatherBlox Daily Observations layout. Learn more.

Left ArrowRight Arrow

Hourly Observations for January 23, 2017

Temp ( °F °C ) Dew Point ( °F °C ) Humidity (%) Winds ( mph kmh ) Pressure ( in mb ) Visibility ( mi km ) Precip ( " mm )
12:14 am 00:14 Cloudy 52 11 52 11 100 100 ENE 9 15 29.62 1003 7 11 N/A
12:34 am 00:34 Cloudy 52 11 52 11 100 100 E 12 19 29.62 1003 10 16 N/A
12:54 am 00:54 Cloudy 52 11 52 11 100 100 E 10 17 29.62 1003 10 16 N/A
1:14 am 01:14 Cloudy with Drizzle 52 11 52 11 100 100 ENE 8 13 29.59 1002 4 6 N/A
1:34 am 01:34 Cloudy with Mist and Fog 52 11 52 11 100 100 ENE 9 15 29.59 1002 4 6 N/A
1:54 am 01:54 Cloudy 50 10 50 10 100 100 ENE 9 15 29.59 1002 7 11 N/A
2:14 am 02:14 Cloudy 50 10 50 10 100 100 E 12 19 29.59 1002 10 16 N/A
2:34 am 02:34 Cloudy 50 10 50 10 100 100 E 14 22 29.59 1002 7 11 N/A
2:54 am 02:54 Cloudy with Light Rain 50 10 50 10 100 100 ENE 16 26 29.59 1002 7 11 N/A
3:14 am 03:14 Cloudy with Light Rain 48 9 48 9 100 100 E 15 24 29.59 1002 3 5 N/A
3:34 am 03:34 Cloudy with Light Rain 48 9 48 9 100 100 ENE 14 22 29.59 1002 5 8 N/A
3:54 am 03:54 Cloudy 48 9 48 9 100 100 NE 13 20 29.56 1001 7 11 N/A
4:14 am 04:14 Cloudy 48 9 48 9 100 100 ENE 12 19 29.56 1001 10 16 N/A
4:34 am 04:34 Cloudy 48 9 48 9 100 100 NE 13 20 29.56 1001 7 11 N/A
4:54 am 04:54 Cloudy 48 9 48 9 100 100 NE 12 19 29.56 1001 10 16 N/A
5:14 am 05:14 Cloudy with Mist and Fog 48 9 48 9 100 100 NE 14 22 29.53 1000 5 8 N/A
5:34 am 05:34 Cloudy 48 9 48 9 100 100 ENE 15 24 29.53 1000 7 11 N/A
5:54 am 05:54 Cloudy with Mist and Fog 48 9 48 9 100 100 NE 12 19 29.53 1000 5 8 N/A
6:14 am 06:14 Cloudy with Mist and Fog 48 9 48 9 100 100 NE 17 28 29.53 1000 5 8 N/A
6:34 am 06:34 Cloudy with Drizzle 46 8 46 8 100 100 NE 15 24 29.53 1000 5 8 N/A
6:54 am 06:54 Cloudy with Mist and Fog 46 8 46 8 100 100 NE 12 19 29.53 1000 5 8 N/A
7:14 am 07:14 Cloudy with Mist and Fog 46 8 46 8 100 100 ENE 15 24 29.53 1000 5 8 N/A
7:34 am 07:34 Cloudy with Light Rain 46 8 46 8 100 100 NE 18 30 29.53 1000 5 8 N/A
7:54 am 07:54 Cloudy with Light Rain 46 8 46 8 100 100 NE 20 31 29.53 1000 4 6 N/A
8:14 am 08:14 Cloudy with Light Rain 46 8 46 8 100 100 NE 16 26 29.53 1000 3 5 N/A
8:34 am 08:34 Cloudy with Light Rain 46 8 46 8 100 100 ENE 22 35 29.53 1000 4 6 N/A
8:54 am 08:54 Cloudy with Light Rain 46 8 46 8 100 100 NE 18 30 29.53 1000 7 11 N/A
9:14 am 09:14 Cloudy with Light Rain 46 8 45 7 93 93 NE 25 41 29.50 999 5 8 N/A
9:34 am 09:34 Cloudy with Mist and Fog 45 7 45 7 100 100 NE 20 31 29.50 999 5 8 N/A
9:54 am 09:54 Cloudy with Light Rain 45 7 45 7 100 100 NE 20 31 29.50 999 7 11 N/A
10:14 am 10:14 Cloudy with Light Rain 45 7 45 7 100 100 NE 17 28 29.50 999 5 8 N/A
10:34 am 10:34 Cloudy with Light Rain 45 7 45 7 100 100 NE 18 30 29.50 999 4 6 N/A
10:54 am 10:54 Cloudy with Light Rain 45 7 45 7 100 100 ENE 9 15 29.50 999 5 8 N/A
11:14 am 11:14 Cloudy with Rain 45 7 43 6 93 93 NNE 16 26 29.50 999 3 5 N/A
11:34 am 11:34 Cloudy with Light Rain 43 6 43 6 100 100 NE 14 22 29.47 998 3 5 N/A
11:54 am 11:54 Cloudy with Light Rain 43 6 43 6 100 100 NE 15 24 29.47 998 4 6 N/A
12:14 pm 12:14 Cloudy with Heavy Rain 43 6 43 6 100 100 NNE 10 17 29.47 998 2 3 N/A
12:34 pm 12:34 Cloudy with Heavy Rain 43 6 43 6 100 100 NE 10 17 29.50 999 2 3 N/A
12:54 pm 12:54 Cloudy with Light Rain 43 6 43 6 100 100 NNE 10 17 29.47 998 3 5 N/A
1:14 pm 13:14 Cloudy 43 6 43 6 100 100 N 8 13 29.47 998 1 2 N/A
1:34 pm 13:34 Cloudy with Light Rain 41 5 41 5 100 100 NNE 6 9 29.50 999 1 2 N/A
1:54 pm 13:54 Cloudy with Light Rain 41 5 41 5 100 100 NNE 5 7 29.53 1000 1 1 N/A
2:14 pm 14:14 Cloudy with Heavy Rain 41 5 41 5 100 100 NNE 10 17 29.50 999 2 2 N/A
2:34 pm 14:34 Cloudy with Light Snow 39 4 39 4 100 100 NNE 7 11 29.56 1001 2 2 N/A
2:54 pm 14:54 Cloudy with Light Rain 39 4 39 4 100 100 N 10 17 29.56 1001 4 6 N/A
3:14 pm 15:14 Cloudy with Drizzle 39 4 39 4 100 100 N 10 17 29.56 1001 7 11 N/A
3:34 pm 15:34 Cloudy with Rain 39 4 39 4 100 100 N 13 20 29.56 1001 3 4 N/A
3:54 pm 15:54 Cloudy with Rain 39 4 39 4 100 100 N 12 19 29.56 1001 3 4 N/A
4:14 pm 16:14 Cloudy with Drizzle 37 3 37 3 100 100 N 9 15 29.56 1001 4 6 N/A
4:34 pm 16:34 Cloudy with Drizzle 37 3 37 3 100 100 N 10 17 29.56 1001 3 4 N/A
4:54 pm 16:54 Cloudy with Rain 37 3 37 3 100 100 N 13 20 29.56 1001 2 3 N/A
5:16 pm 17:16 Cloudy with Light Rain 37 3 37 3 100 100 NNE 10 17 29.56 1001 3 5 N/A
5:34 pm 17:34 Cloudy with Drizzle 37 3 37 3 100 100 NNE 15 24 29.56 1001 3 5 N/A
5:54 pm 17:54 Cloudy with Drizzle 37 3 37 3 100 100 N 13 20 29.56 1001 3 5 N/A
6:15 pm 18:15 Cloudy with Drizzle 37 3 37 3 100 100 N 10 17 29.56 1001 3 5 N/A
6:34 pm 18:34 Cloudy with Drizzle 37 3 37 3 100 100 N 9 15 29.56 1001 3 5 N/A
6:54 pm 18:54 Cloudy with Drizzle 37 3 37 3 100 100 NNE 14 22 29.56 1001 3 5 N/A
7:14 pm 19:14 Cloudy with Light Rain 37 3 37 3 100 100 N 10 17 29.56 1001 3 5 N/A
7:34 pm 19:34 Cloudy with Drizzle 37 3 37 3 100 100 N 15 24 29.56 1001 3 5 N/A
7:54 pm 19:54 Cloudy with Drizzle 37 3 37 3 100 100 N 16 26 29.56 1001 3 5 N/A
8:14 pm 20:14 Cloudy with Mist and Fog 37 3 37 3 100 100 N 13 20 29.56 1001 4 6 N/A
8:34 pm 20:34 Cloudy with Mist and Fog 37 3 37 3 100 100 N 12 19 29.56 1001 4 6 N/A
8:54 pm 20:54 Cloudy with Mist and Fog 37 3 37 3 100 100 N 12 19 29.56 1001 4 6 N/A
9:14 pm 21:14 Cloudy with Light Rain 37 3 37 3 100 100 N 14 22 29.56 1001 4 6 N/A
9:34 pm 21:34 Cloudy with Drizzle 37 3 37 3 100 100 N 13 20 29.56 1001 4 6 N/A
9:54 pm 21:54 Cloudy with Drizzle 37 3 37 3 100 100 N 12 19 29.56 1001 4 6 N/A
10:14 pm 22:14 Cloudy with Drizzle 37 3 37 3 100 100 N 12 19 29.56 1001 5 8 N/A
10:34 pm 22:34 Cloudy with Mist and Fog 37 3 37 3 100 100 N 12 19 29.56 1001 4 6 N/A
10:54 pm 22:54 Cloudy with Light Rain 37 3 37 3 100 100 N 10 17 29.56 1001 5 8 N/A
11:14 pm 23:14 Cloudy with Drizzle 37 3 37 3 100 100 N 10 17 29.56 1001 5 8 N/A
11:35 pm 23:35 Cloudy with Drizzle 37 3 37 3 100 100 N 13 20 29.56 1001 5 8 N/A
11:54 pm 23:54 Cloudy with Light Rain 37 3 37 3 100 100 N 13 20 29.56 1001 5 8 N/A

Powered by AerisWeather